START_TIME,STEP,MOV.,A39,t_acc.,A33,t_acc.,P32,t_acc.,P31,t_acc.
1979-02-28 12:00:12.140 ,4,0,3.,0.8,0.,0.8,0.,0.8,3.,0.8
1979-02-28 12:00:12.940 ,4,0,2.,0.8,0.,0.8,1.,0.8,5.,0.8
1979-02-28 12:00:13.740 ,4,0,0.,0.8,0.,0.8,0.,0.8,4.,0.8
1979-02-28 12:00:14.540 ,4,0,1.,0.8,0.,0.8,0.,0.8,8.,0.8
1979-02-28 12:00:15.340 ,4,0,1.,0.8,0.,0.8,0.,0.8,6.,0.8
1979-02-28 12:00:16.140 ,4,0,3.,0.8,0.,0.8,0.,0.8,5.,0.8
1979-02-28 12:00:16.940 ,4,0,2.,0.8,0.,0.8,0.,0.8,7.,0.8
1979-02-28 12:00:17.740 ,4,0,1.,0.8,0.,0.8,0.,0.8,2.,0.8
1979-02-28 12:00:18.540 ,4,0,1.,0.8,0.,0.8,0.,0.8,2.,0.8
1979-02-28 12:00:19.340 ,4,0,2.,0.8,0.,0.8,0.,0.8,4.,0.8
1979-02-28 12:00:20.140 ,4,0,1.,0.8,0.,0.8,0.,0.8,5.,0.8
1979-02-28 12:00:20.940 ,4,0,0.,0.8,0.,0.8,0.,0.8,4.,0.8
1979-02-28 12:00:21.740 ,4,0,2.,0.8,0.,0.8,1.,0.8,4.,0.8
1979-02-28 12:00:22.540 ,4,0,1.,0.8,0.,0.8,0.,0.8,5.,0.8
1979-02-28 12:00:23.340 ,4,0,3.,0.8,0.,0.8,0.,0.8,3.,0.8
1979-02-28 12:00:24.140 ,4,0,3.,0.8,0.,0.8,0.,0.8,5.,0.8
1979-02-28 12:00:24.940 ,4,0,1.,0.8,0.,0.8,0.,0.8,4.,0.8
1979-02-28 12:00:25.740 ,4,0,1.,0.8,1.,0.8,0.,0.8,3.,0.8
1979-02-28 12:00:26.540 ,4,0,1.,0.8,0.,0.8,0.,0.8,4.,0.8
1979-02-28 12:00:27.340 ,4,0,1.,0.8,0.,0.8,0.,0.8,2.,0.8
1979-02-28 12:00:28.140 ,4,0,3.,0.8,0.,0.8,0.,0.8,4.,0.8
1979-02-28 12:00:28.940 ,4,0,3.,0.8,0.,0.8,0.,0.8,5.,0.8
1979-02-28 12:00:29.740 ,4,0,2.,0.8,0.,0.8,0.,0.8,8.,0.8
1979-02-28 12:00:30.540 ,4,0,1.,0.8,0.,0.8,0.,0.8,5.,0.8
1979-02-28 12:00:31.340 ,4,0,1.,0.8,0.,0.8,0.,0.8,4.,0.8
1979-02-28 12:00:32.140 ,4,0,1.,0.8,0.,0.8,0.,0.8,5.,0.8
1979-02-28 12:00:32.940 ,4,0,2.,0.8,0.,0.8,0.,0.8,6.,0.8
1979-02-28 12:00:33.740 ,4,0,2.,0.8,0.,0.8,0.,0.8,7.,0.8
1979-02-28 12:00:34.540 ,4,0,4.,0.8,0.,0.8,0.,0.8,5.,0.8
1979-02-28 12:00:35.340 ,4,0,2.,0.8,0.,0.8,0.,0.8,6.,0.8
1979-02-28 12:00:36.140 ,3,0,2.,0.8,0.,0.8,0.,0.8,1.,0.8
1979-02-28 12:00:36.940 ,3,0,0.,0.8,0.,0.8,0.,0.8,2.,0.8
1979-02-28 12:00:37.740 ,3,0,1.,0.8,0.,0.8,0.,0.8,0.,0.8
1979-02-28 12:00:38.540 ,3,0,2.,0.8,0.,0.8,0.,0.8,3.,0.8
1979-02-28 12:00:39.340 ,3,0,1.,0.8,0.,0.8,0.,0.8,5.,0.8
1979-02-28 12:00:40.140 ,3,0,1.,0.8,0.,0.8,0.,0.8,2.,0.8
1979-02-28 12:00:40.940 ,3,0,2.,0.8,0.,0.8,0.,0.8,2.,0.8
1979-02-28 12:00:41.740 ,3,0,3.,0.8,0.,0.8,0.,0.8,5.,0.8
1979-02-28 12:00:42.540 ,3,0,0.,0.8,0.,0.8,0.,0.8,5.,0.8
1979-02-28 12:00:43.340 ,3,0,2.,0.8,1.,0.8,0.,0.8,2.,0.8
1979-02-28 12:00:44.140 ,3,0,2.,0.8,0.,0.8,1.,0.8,5.,0.8
1979-02-28 12:00:44.940 ,3,0,3.,0.8,0.,0.8,0.,0.8,6.,0.8
1979-02-28 12:00:45.740 ,3,0,0.,0.8,0.,0.8,0.,0.8,4.,0.8
1979-02-28 12:00:46.540 ,3,0,1.,0.8,0.,0.8,0.,0.8,1.,0.8
1979-02-28 12:00:47.340 ,3,0,1.,0.8,0.,0.8,0.,0.8,4.,0.8
1979-02-28 12:00:48.140 ,3,0,3.,0.8,0.,0.8,0.,0.8,5.,0.8
1979-02-28 12:00:48.940 ,3,0,2.,0.8,0.,0.8,0.,0.8,2.,0.8
1979-02-28 12:00:49.740 ,3,0,2.,0.8,0.,0.8,0.,0.8,3.,0.8
1979-02-28 12:00:50.540 ,3,0,3.,0.8,0.,0.8,0.,0.8,3.,0.8
1979-02-28 12:00:51.340 ,3,0,3.,0.8,0.,0.8,0.,0.8,7.,0.8
1979-02-28 12:00:52.140 ,3,0,1.,0.8,0.,0.8,0.,0.8,2.,0.8
1979-02-28 12:00:52.940 ,3,0,4.,0.8,0.,0.8,0.,0.8,3.,0.8
1979-02-28 12:00:53.740 ,3,0,2.,0.8,0.,0.8,0.,0.8,6.,0.8
1979-02-28 12:00:54.540 ,3,0,1.,0.8,0.,0.8,0.,0.8,3.,0.8
1979-02-28 12:00:55.340 ,3,0,2.,0.8,0.,0.8,0.,0.8,4.,0.8
1979-02-28 12:00:56.140 ,3,0,3.,0.8,0.,0.8,0.,0.8,5.,0.8
1979-02-28 12:00:56.940 ,3,0,2.,0.8,0.,0.8,0.,0.8,2.,0.8
1979-02-28 12:00:57.740 ,3,0,1.,0.8,0.,0.8,0.,0.8,2.,0.8
1979-02-28 12:00:58.540 ,3,0,4.,0.8,0.,0.8,1.,0.8,5.,0.8
1979-02-28 12:00:59.340 ,3,0,2.,0.8,0.,0.8,0.,0.8,4.,0.8
1979-02-28 12:01:00.140 ,2,0,1.,0.8,0.,0.8,0.,0.8,4.,0.8
1979-02-28 12:01:00.940 ,2,0,2.,0.8,0.,0.8,0.,0.8,2.,0.8
1979-02-28 12:01:01.740 ,2,0,0.,0.8,0.,0.8,0.,0.8,2.,0.8
1979-02-28 12:01:02.540 ,2,0,3.,0.8,0.,0.8,0.,0.8,5.,0.8
1979-02-28 12:01:03.340 ,2,0,2.,0.8,0.,0.8,0.,0.8,3.,0.8
1979-02-28 12:01:04.140 ,2,0,1.,0.8,0.,0.8,0.,0.8,2.,0.8
1979-02-28 12:01:04.940 ,2,0,4.,0.8,0.,0.8,0.,0.8,4.,0.8
1979-02-28 12:01:05.740 ,2,0,4.,0.8,0.,0.8,0.,0.8,6.,0.8
1979-02-28 12:01:06.540 ,2,0,1.,0.8,0.,0.8,1.,0.8,6.,0.8
1979-02-28 12:01:07.340 ,2,0,4.,0.8,0.,0.8,0.,0.8,7.,0.8
1979-02-28 12:01:08.140 ,2,0,1.,0.8,0.,0.8,0.,0.8,4.,0.8
1979-02-28 12:01:08.940 ,2,0,0.,0.8,0.,0.8,0.,0.8,6.,0.8
1979-02-28 12:01:09.740 ,2,0,1.,0.8,0.,0.8,0.,0.8,3.,0.8
1979-02-28 12:01:10.540 ,2,0,2.,0.8,0.,0.8,0.,0.8,4.,0.8
1979-02-28 12:01:11.340 ,2,0,4.,0.8,0.,0.8,0.,0.8,4.,0.8
1979-02-28 12:01:12.140 ,2,0,3.,0.8,0.,0.8,0.,0.8,6.,0.8
1979-02-28 12:01:12.940 ,2,0,3.,0.8,0.,0.8,0.,0.8,4.,0.8
1979-02-28 12:01:13.740 ,2,0,1.,0.8,1.,0.8,0.,0.8,2.,0.8
1979-02-28 12:01:14.540 ,2,0,2.,0.8,0.,0.8,0.,0.8,3.,0.8
1979-02-28 12:01:15.340 ,2,0,2.,0.8,0.,0.8,0.,0.8,5.,0.8
1979-02-28 12:01:16.140 ,2,0,2.,0.8,0.,0.8,0.,0.8,4.,0.8
1979-02-28 12:01:16.940 ,2,0,2.,0.8,0.,0.8,0.,0.8,6.,0.8
1979-02-28 12:01:17.740 ,2,0,2.,0.8,0.,0.8,1.,0.8,6.,0.8
1979-02-28 12:01:18.540 ,2,0,3.,0.8,0.,0.8,0.,0.8,5.,0.8
1979-02-28 12:01:19.340 ,2,0,3.,0.8,1.,0.8,0.,0.8,1.,0.8
1979-02-28 12:01:20.140 ,2,0,2.,0.8,0.,0.8,0.,0.8,3.,0.8
1979-02-28 12:01:20.940 ,2,0,2.,0.8,0.,0.8,0.,0.8,3.,0.8
1979-02-28 12:01:21.740 ,2,0,2.,0.8,1.,0.8,0.,0.8,6.,0.8
1979-02-28 12:01:22.540 ,2,0,3.,0.8,0.,0.8,0.,0.8,7.,0.8
1979-02-28 12:01:23.340 ,2,0,1.,0.8,0.,0.8,0.,0.8,1.,0.8
1979-02-28 12:01:24.140 ,1,0,2.,0.8,0.,0.8,0.,0.8,3.,0.8
1979-02-28 12:01:24.940 ,1,0,2.,0.8,0.,0.8,0.,0.8,2.,0.8
1979-02-28 12:01:25.740 ,1,0,2.,0.8,0.,0.8,0.,0.8,3.,0.8
1979-02-28 12:01:26.540 ,1,0,3.,0.8,0.,0.8,0.,0.8,1.,0.8
1979-02-28 12:01:27.340 ,1,0,2.,0.8,0.,0.8,0.,0.8,6.,0.8
1979-02-28 12:01:28.140 ,1,0,1.,0.8,0.,0.8,0.,0.8,3.,0.8
1979-02-28 12:01:28.940 ,1,0,2.,0.8,0.,0.8,0.,0.8,2.,0.8
1979-02-28 12:01:29.740 ,1,0,0.,0.8,0.,0.8,0.,0.8,3.,0.8
1979-02-28 12:01:30.540 ,1,0,1.,0.8,0.,0.8,0.,0.8,5.,0.8
1979-02-28 12:01:31.340 ,1,0,4.,0.8,0.,0.8,0.,0.8,4.,0.8
1979-02-28 12:01:32.140 ,1,0,4.,0.8,0.,0.8,0.,0.8,6.,0.8
1979-02-28 12:01:32.940 ,1,0,0.,0.8,0.,0.8,0.,0.8,3.,0.8
1979-02-28 12:01:33.740 ,1,0,1.,0.8,1.,0.8,0.,0.8,4.,0.8
1979-02-28 12:01:34.540 ,1,0,3.,0.8,0.,0.8,0.,0.8,4.,0.8
1979-02-28 12:01:35.340 ,1,0,2.,0.8,0.,0.8,0.,0.8,9.,0.8
1979-02-28 12:01:36.140 ,1,0,2.,0.8,0.,0.8,0.,0.8,4.,0.8
1979-02-28 12:01:36.940 ,1,0,3.,0.8,1.,0.8,1.,0.8,5.,0.8
1979-02-28 12:01:37.740 ,1,0,2.,0.8,0.,0.8,0.,0.8,6.,0.8
1979-02-28 12:01:38.540 ,1,0,0.,0.8,0.,0.8,0.,0.8,3.,0.8
1979-02-28 12:01:39.340 ,1,0,3.,0.8,0.,0.8,0.,0.8,3.,0.8
1979-02-28 12:01:40.140 ,1,0,3.,0.8,1.,0.8,0.,0.8,2.,0.8
1979-02-28 12:01:40.940 ,1,0,2.,0.8,0.,0.8,2.,0.8,3.,0.8
1979-02-28 12:01:41.740 ,1,0,0.,0.8,0.,0.8,0.,0.8,4.,0.8
1979-02-28 12:01:42.540 ,1,0,4.,0.8,0.,0.8,0.,0.8,5.,0.8
1979-02-28 12:01:43.340 ,1,0,3.,0.8,0.,0.8,0.,0.8,7.,0.8
1979-02-28 12:01:44.140 ,1,0,2.,0.8,0.,0.8,0.,0.8,4.,0.8
1979-02-28 12:01:44.940 ,1,0,2.,0.8,0.,0.8,0.,0.8,3.,0.8
1979-02-28 12:01:45.740 ,1,0,1.,0.8,0.,0.8,0.,0.8,3.,0.8
1979-02-28 12:01:46.540 ,1,0,4.,0.8,0.,0.8,0.,0.8,2.,0.8
1979-02-28 12:01:47.340 ,1,0,1.,0.8,0.,0.8,1.,0.8,5.,0.8
1979-02-28 12:01:48.140 ,0,0,2.,0.8,0.,0.8,0.,0.8,3.,0.8
1979-02-28 12:01:48.940 ,0,0,4.,0.8,0.,0.8,0.,0.8,4.,0.8
1979-02-28 12:01:49.740 ,0,0,3.,0.8,0.,0.8,0.,0.8,4.,0.8
1979-02-28 12:01:50.540 ,0,0,0.,0.8,0.,0.8,0.,0.8,4.,0.8
1979-02-28 12:01:51.340 ,0,0,2.,0.8,0.,0.8,0.,0.8,1.,0.8
1979-02-28 12:01:52.140 ,0,0,3.,0.8,0.,0.8,0.,0.8,5.,0.8
1979-02-28 12:01:52.940 ,0,0,0.,0.8,0.,0.8,0.,0.8,1.,0.8
1979-02-28 12:01:53.740 ,0,0,4.,0.8,0.,0.8,0.,0.8,1.,0.8
1979-02-28 12:01:54.540 ,0,0,1.,0.8,0.,0.8,0.,0.8,5.,0.8
1979-02-28 12:01:55.340 ,0,0,2.,0.8,0.,0.8,0.,0.8,3.,0.8
1979-02-28 12:01:56.140 ,0,0,1.,0.8,0.,0.8,0.,0.8,5.,0.8
1979-02-28 12:01:56.940 ,0,0,0.,0.8,0.,0.8,0.,0.8,1.,0.8
1979-02-28 12:01:57.740 ,0,0,3.,0.8,0.,0.8,0.,0.8,4.,0.8
1979-02-28 12:01:58.540 ,0,0,3.,0.8,0.,0.8,0.,0.8,3.,0.8
1979-02-28 12:01:59.340 ,0,0,1.,0.8,0.,0.8,0.,0.8,6.,0.8
1979-02-28 12:02:00.140 ,0,0,2.,0.8,0.,0.8,0.,0.8,5.,0.8
1979-02-28 12:02:00.940 ,0,0,2.,0.8,0.,0.8,1.,0.8,6.,0.8
1979-02-28 12:02:01.740 ,0,0,1.,0.8,1.,0.8,0.,0.8,4.,0.8
1979-02-28 12:02:02.540 ,0,0,1.,0.8,0.,0.8,0.,0.8,3.,0.8
1979-02-28 12:02:03.340 ,0,0,3.,0.8,0.,0.8,0.,0.8,4.,0.8
1979-02-28 12:02:04.140 ,0,0,1.,0.8,0.,0.8,0.,0.8,4.,0.8
1979-02-28 12:02:04.940 ,0,0,2.,0.8,0.,0.8,1.,0.8,1.,0.8
1979-02-28 12:02:05.740 ,0,0,3.,0.8,0.,0.8,0.,0.8,5.,0.8
1979-02-28 12:02:06.540 ,0,0,0.,0.8,0.,0.8,1.,0.8,2.,0.8
1979-02-28 12:02:07.340 ,0,0,1.,0.8,0.,0.8,1.,0.8,2.,0.8
1979-02-28 12:02:08.140 ,0,0,1.,0.8,0.,0.8,1.,0.8,1.,0.8
1979-02-28 12:02:08.940 ,0,0,1.,0.8,0.,0.8,0.,0.8,5.,0.8
1979-02-28 12:02:09.740 ,0,0,3.,0.8,0.,0.8,1.,0.8,8.,0.8
1979-02-28 12:02:10.540 ,0,0,0.,0.8,0.,0.8,0.,0.8,0.,0.8
1979-02-28 12:02:11.340 ,0,0,0.,0.8,0.,0.8,0.,0.8,2.,0.8
1979-02-28 12:02:12.140 ,0,0,1.,0.8,0.,0.8,0.,0.8,6.,0.8
1979-02-28 12:02:12.940 ,0,0,1.,0.8,0.,0.8,0.,0.8,2.,0.8
1979-02-28 12:02:13.740 ,0,0,3.,0.8,0.,0.8,0.,0.8,3.,0.8
1979-02-28 12:02:14.540 ,0,0,2.,0.8,0.,0.8,0.,0.8,5.,0.8
1979-02-28 12:02:15.340 ,0,0,0.,0.8,0.,0.8,0.,0.8,3.,0.8
1979-02-28 12:02:16.140 ,0,0,0.,0.8,0.,0.8,1.,0.8,4.,0.8
1979-02-28 12:02:16.940 ,0,0,2.,0.8,0.,0.8,0.,0.8,1.,0.8
1979-02-28 12:02:17.740 ,0,0,0.,0.8,0.,0.8,0.,0.8,5.,0.8
1979-02-28 12:02:18.540 ,0,0,1.,0.8,0.,0.8,0.,0.8,1.,0.8
1979-02-28 12:02:19.340 ,0,0,1.,0.8,0.,0.8,0.,0.8,4.,0.8
1979-02-28 12:02:20.140 ,0,0,3.,0.8,0.,0.8,0.,0.8,3.,0.8
1979-02-28 12:02:20.940 ,0,0,2.,0.8,0.,0.8,0.,0.8,2.,0.8
1979-02-28 12:02:21.740 ,0,0,2.,0.8,0.,0.8,0.,0.8,8.,0.8
1979-02-28 12:02:22.540 ,0,0,1.,0.8,0.,0.8,0.,0.8,2.,0.8
1979-02-28 12:02:23.340 ,0,0,2.,0.8,0.,0.8,0.,0.8,1.,0.8
1979-02-28 12:02:24.140 ,0,0,2.,0.8,0.,0.8,1.,0.8,3.,0.8
1979-02-28 12:02:24.940 ,0,0,0.,0.8,0.,0.8,0.,0.8,4.,0.8
1979-02-28 12:02:25.740 ,0,0,1.,0.8,0.,0.8,1.,0.8,6.,0.8
1979-02-28 12:02:26.540 ,0,0,1.,0.8,0.,0.8,0.,0.8,5.,0.8
1979-02-28 12:02:27.340 ,0,0,2.,0.8,0.,0.8,0.,0.8,4.,0.8
1979-02-28 12:02:28.140 ,0,0,1.,0.8,0.,0.8,0.,0.8,4.,0.8
1979-02-28 12:02:28.940 ,0,0,1.,0.8,0.,0.8,0.,0.8,3.,0.8
1979-02-28 12:02:29.740 ,0,0,3.,0.8,0.,0.8,1.,0.8,5.,0.8
1979-02-28 12:02:30.540 ,0,0,1.,0.8,0.,0.8,0.,0.8,2.,0.8
1979-02-28 12:02:31.340 ,0,0,2.,0.8,0.,0.8,0.,0.8,3.,0.8
1979-02-28 12:02:32.140 ,0,0,1.,0.8,0.,0.8,0.,0.8,3.,0.8
1979-02-28 12:02:32.940 ,0,0,2.,0.8,0.,0.8,0.,0.8,7.,0.8
1979-02-28 12:02:33.740 ,0,0,2.,0.8,0.,0.8,0.,0.8,4.,0.8
1979-02-28 12:02:34.540 ,0,0,1.,0.8,0.,0.8,0.,0.8,5.,0.8
1979-02-28 12:02:35.340 ,0,0,1.,0.8,0.,0.8,0.,0.8,5.,0.8
1979-02-28 12:02:36.140 ,1,0,3.,0.8,0.,0.8,0.,0.8,3.,0.8
1979-02-28 12:02:36.940 ,1,0,2.,0.8,0.,0.8,0.,0.8,3.,0.8
1979-02-28 12:02:37.740 ,1,0,4.,0.8,0.,0.8,0.,0.8,10.,0.8
1979-02-28 12:02:38.540 ,1,0,0.,0.8,0.,0.8,0.,0.8,3.,0.8
1979-02-28 12:02:39.340 ,1,0,3.,0.8,0.,0.8,1.,0.8,5.,0.8
1979-02-28 12:02:40.140 ,1,0,2.,0.8,0.,0.8,0.,0.8,5.,0.8
1979-02-28 12:02:40.940 ,1,0,2.,0.8,0.,0.8,0.,0.8,11.,0.8
1979-02-28 12:02:41.740 ,1,0,3.,0.8,0.,0.8,1.,0.8,5.,0.8
1979-02-28 12:02:42.540 ,1,0,2.,0.8,0.,0.8,0.,0.8,4.,0.8
1979-02-28 12:02:43.340 ,1,0,0.,0.8,0.,0.8,0.,0.8,4.,0.8
1979-02-28 12:02:44.140 ,1,0,2.,0.8,0.,0.8,1.,0.8,5.,0.8
1979-02-28 12:02:44.940 ,1,0,3.,0.8,1.,0.8,1.,0.8,7.,0.8
1979-02-28 12:02:45.740 ,1,0,2.,0.8,0.,0.8,0.,0.8,6.,0.8
1979-02-28 12:02:46.540 ,1,0,2.,0.8,0.,0.8,0.,0.8,2.,0.8
1979-02-28 12:02:47.340 ,1,0,2.,0.8,1.,0.8,0.,0.8,7.,0.8
1979-02-28 12:02:48.140 ,1,0,1.,0.8,1.,0.8,0.,0.8,0.,0.8
1979-02-28 12:02:48.940 ,1,0,0.,0.8,0.,0.8,0.,0.8,5.,0.8
1979-02-28 12:02:49.740 ,1,0,1.,0.8,0.,0.8,0.,0.8,5.,0.8
1979-02-28 12:02:50.540 ,1,0,0.,0.8,0.,0.8,0.,0.8,6.,0.8
1979-02-28 12:02:51.340 ,1,0,2.,0.8,1.,0.8,1.,0.8,2.,0.8
1979-02-28 12:02:52.140 ,1,0,0.,0.8,0.,0.8,0.,0.8,4.,0.8
1979-02-28 12:02:52.940 ,1,0,0.,0.8,0.,0.8,1.,0.8,1.,0.8
1979-02-28 12:02:53.740 ,1,0,3.,0.8,0.,0.8,0.,0.8,4.,0.8
1979-02-28 12:02:54.540 ,1,0,3.,0.8,0.,0.8,0.,0.8,6.,0.8
1979-02-28 12:02:55.340 ,1,0,2.,0.8,0.,0.8,0.,0.8,4.,0.8
1979-02-28 12:02:56.140 ,1,0,2.,0.8,0.,0.8,0.,0.8,1.,0.8
1979-02-28 12:02:56.940 ,1,0,2.,0.8,0.,0.8,0.,0.8,2.,0.8
1979-02-28 12:02:57.740 ,1,0,1.,0.8,0.,0.8,0.,0.8,4.,0.8
1979-02-28 12:02:58.540 ,1,0,2.,0.8,0.,0.8,0.,0.8,5.,0.8
1979-02-28 12:02:59.340 ,1,0,3.,0.8,0.,0.8,2.,0.8,4.,0.8
1979-02-28 12:03:00.140 ,2,0,3.,0.8,0.,0.8,0.,0.8,5.,0.8
1979-02-28 12:03:00.940 ,2,0,4.,0.8,0.,0.8,0.,0.8,1.,0.8
1979-02-28 12:03:01.740 ,2,0,1.,0.8,0.,0.8,0.,0.8,3.,0.8
1979-02-28 12:03:02.540 ,2,0,1.,0.8,0.,0.8,0.,0.8,0.,0.8
1979-02-28 12:03:03.340 ,2,0,2.,0.8,0.,0.8,0.,0.8,6.,0.8
1979-02-28 12:03:04.140 ,2,0,2.,0.8,0.,0.8,0.,0.8,5.,0.8
1979-02-28 12:03:04.940 ,2,0,4.,0.8,0.,0.8,1.,0.8,7.,0.8
1979-02-28 12:03:05.740 ,2,0,2.,0.8,0.,0.8,0.,0.8,0.,0.8
1979-02-28 12:03:06.540 ,2,0,2.,0.8,0.,0.8,0.,0.8,2.,0.8
1979-02-28 12:03:07.340 ,2,0,3.,0.8,2.,0.8,0.,0.8,5.,0.8
1979-02-28 12:03:08.140 ,2,0,3.,0.8,0.,0.8,0.,0.8,5.,0.8
1979-02-28 12:03:08.940 ,2,0,1.,0.8,0.,0.8,0.,0.8,7.,0.8
1979-02-28 12:03:09.740 ,2,0,2.,0.8,0.,0.8,0.,0.8,2.,0.8
1979-02-28 12:03:10.540 ,2,0,1.,0.8,0.,0.8,0.,0.8,7.,0.8
1979-02-28 12:03:11.340 ,2,0,4.,0.8,0.,0.8,0.,0.8,4.,0.8
1979-02-28 12:03:12.140 ,2,0,2.,0.8,0.,0.8,0.,0.8,7.,0.8
1979-02-28 12:03:12.940 ,2,0,1.,0.8,0.,0.8,0.,0.8,5.,0.8
1979-02-28 12:03:13.740 ,2,0,2.,0.8,0.,0.8,0.,0.8,5.,0.8
1979-02-28 12:03:14.540 ,2,0,4.,0.8,0.,0.8,0.,0.8,6.,0.8
1979-02-28 12:03:15.340 ,2,0,3.,0.8,0.,0.8,0.,0.8,4.,0.8
1979-02-28 12:03:16.140 ,2,0,3.,0.8,1.,0.8,0.,0.8,3.,0.8
1979-02-28 12:03:16.940 ,2,0,2.,0.8,0.,0.8,0.,0.8,6.,0.8
1979-02-28 12:03:17.740 ,2,0,2.,0.8,0.,0.8,1.,0.8,3.,0.8
1979-02-28 12:03:18.540 ,2,0,0.,0.8,0.,0.8,0.,0.8,2.,0.8
1979-02-28 12:03:19.340 ,2,0,1.,0.8,0.,0.8,0.,0.8,1.,0.8
1979-02-28 12:03:20.140 ,2,0,3.,0.8,0.,0.8,0.,0.8,5.,0.8
1979-02-28 12:03:20.940 ,2,0,2.,0.8,0.,0.8,0.,0.8,3.,0.8
1979-02-28 12:03:21.740 ,2,0,1.,0.8,0.,0.8,0.,0.8,1.,0.8
1979-02-28 12:03:22.540 ,2,0,2.,0.8,0.,0.8,0.,0.8,6.,0.8
1979-02-28 12:03:23.340 ,2,0,0.,0.8,0.,0.8,0.,0.8,6.,0.8
1979-02-28 12:03:24.140 ,3,0,3.,0.8,0.,0.8,0.,0.8,4.,0.8
1979-02-28 12:03:24.940 ,3,0,2.,0.8,0.,0.8,0.,0.8,6.,0.8
1979-02-28 12:03:25.740 ,3,0,2.,0.8,1.,0.8,0.,0.8,7.,0.8
1979-02-28 12:03:26.540 ,3,0,3.,0.8,0.,0.8,1.,0.8,7.,0.8
1979-02-28 12:03:27.340 ,3,0,2.,0.8,0.,0.8,2.,0.8,0.,0.8
1979-02-28 12:03:28.140 ,3,0,1.,0.8,1.,0.8,0.,0.8,1.,0.8
1979-02-28 12:03:28.940 ,3,0,2.,0.8,0.,0.8,0.,0.8,5.,0.8
1979-02-28 12:03:29.740 ,3,0,1.,0.8,0.,0.8,0.,0.8,7.,0.8
1979-02-28 12:03:30.540 ,3,0,1.,0.8,0.,0.8,1.,0.8,3.,0.8
1979-02-28 12:03:31.340 ,3,0,2.,0.8,0.,0.8,0.,0.8,7.,0.8
1979-02-28 12:03:32.140 ,3,0,3.,0.8,0.,0.8,0.,0.8,4.,0.8
1979-02-28 12:03:32.940 ,3,0,3.,0.8,1.,0.8,0.,0.8,3.,0.8
1979-02-28 12:03:33.740 ,3,0,3.,0.8,0.,0.8,0.,0.8,6.,0.8
1979-02-28 12:03:34.540 ,3,0,2.,0.8,0.,0.8,0.,0.8,1.,0.8
1979-02-28 12:03:35.340 ,3,0,3.,0.8,0.,0.8,1.,0.8,3.,0.8
1979-02-28 12:03:36.140 ,3,0,3.,0.8,0.,0.8,0.,0.8,3.,0.8
1979-02-28 12:03:36.940 ,3,0,4.,0.8,0.,0.8,0.,0.8,7.,0.8
1979-02-28 12:03:37.740 ,3,0,2.,0.8,0.,0.8,0.,0.8,3.,0.8
1979-02-28 12:03:38.540 ,3,0,0.,0.8,0.,0.8,0.,0.8,2.,0.8
1979-02-28 12:03:39.340 ,3,0,2.,0.8,0.,0.8,0.,0.8,3.,0.8
1979-02-28 12:03:40.140 ,3,0,1.,0.8,0.,0.8,0.,0.8,4.,0.8
1979-02-28 12:03:40.940 ,3,0,3.,0.8,0.,0.8,0.,0.8,2.,0.8
1979-02-28 12:03:41.740 ,3,0,2.,0.8,0.,0.8,0.,0.8,2.,0.8
1979-02-28 12:03:42.540 ,3,0,1.,0.8,0.,0.8,0.,0.8,1.,0.8
1979-02-28 12:03:43.340 ,3,0,3.,0.8,0.,0.8,1.,0.8,5.,0.8
1979-02-28 12:03:44.140 ,3,0,3.,0.8,0.,0.8,1.,0.8,5.,0.8
1979-02-28 12:03:44.940 ,3,0,3.,0.8,0.,0.8,0.,0.8,6.,0.8
1979-02-28 12:03:45.740 ,3,0,1.,0.8,0.,0.8,1.,0.8,3.,0.8
1979-02-28 12:03:46.540 ,3,0,1.,0.8,0.,0.8,0.,0.8,5.,0.8
1979-02-28 12:03:47.340 ,3,0,3.,0.8,1.,0.8,0.,0.8,4.,0.8
1979-02-28 12:03:48.140 ,4,0,3.,0.8,0.,0.8,0.,0.8,3.,0.8
1979-02-28 12:03:48.940 ,4,0,1.,0.8,0.,0.8,0.,0.8,5.,0.8
1979-02-28 12:03:49.740 ,4,0,2.,0.8,0.,0.8,0.,0.8,4.,0.8
1979-02-28 12:03:50.540 ,4,0,3.,0.8,0.,0.8,0.,0.8,3.,0.8
1979-02-28 12:03:51.340 ,4,0,0.,0.8,0.,0.8,0.,0.8,3.,0.8
1979-02-28 12:03:52.140 ,4,0,2.,0.8,0.,0.8,0.,0.8,2.,0.8
1979-02-28 12:03:52.940 ,4,0,3.,0.8,0.,0.8,0.,0.8,4.,0.8
1979-02-28 12:03:53.740 ,4,0,2.,0.8,0.,0.8,0.,0.8,5.,0.8
1979-02-28 12:03:54.540 ,4,0,1.,0.8,0.,0.8,0.,0.8,5.,0.8
1979-02-28 12:03:55.340 ,4,0,1.,0.8,0.,0.8,0.,0.8,1.,0.8
1979-02-28 12:03:56.140 ,4,0,2.,0.8,0.,0.8,0.,0.8,4.,0.8
1979-02-28 12:03:56.940 ,4,0,3.,0.8,0.,0.8,0.,0.8,3.,0.8
1979-02-28 12:03:57.740 ,4,0,1.,0.8,0.,0.8,0.,0.8,1.,0.8
1979-02-28 12:03:58.540 ,4,0,3.,0.8,0.,0.8,0.,0.8,6.,0.8
1979-02-28 12:03:59.340 ,4,0,2.,0.8,0.,0.8,0.,0.8,4.,0.8
1979-02-28 12:04:00.140 ,4,0,1.,0.8,0.,0.8,1.,0.8,4.,0.8
1979-02-28 12:04:00.940 ,4,0,0.,0.8,0.,0.8,0.,0.8,7.,0.8
1979-02-28 12:04:01.740 ,4,0,1.,0.8,0.,0.8,0.,0.8,2.,0.8
1979-02-28 12:04:02.540 ,4,0,2.,0.8,0.,0.8,0.,0.8,2.,0.8
1979-02-28 12:04:03.340 ,4,0,2.,0.8,0.,0.8,0.,0.8,11.,0.8
1979-02-28 12:04:04.140 ,4,0,1.,0.8,0.,0.8,0.,0.8,4.,0.8
1979-02-28 12:04:04.940 ,4,0,4.,0.8,0.,0.8,0.,0.8,9.,0.8
1979-02-28 12:04:05.740 ,4,0,1.,0.8,0.,0.8,0.,0.8,0.,0.8
1979-02-28 12:04:06.540 ,4,0,1.,0.8,0.,0.8,0.,0.8,2.,0.8
1979-02-28 12:04:07.340 ,4,0,2.,0.8,0.,0.8,0.,0.8,5.,0.8
1979-02-28 12:04:08.140 ,4,0,2.,0.8,0.,0.8,0.,0.8,4.,0.8
1979-02-28 12:04:08.940 ,4,0,1.,0.8,0.,0.8,0.,0.8,3.,0.8
1979-02-28 12:04:09.740 ,4,0,2.,0.8,0.,0.8,0.,0.8,4.,0.8
1979-02-28 12:04:10.540 ,4,0,2.,0.8,0.,0.8,0.,0.8,3.,0.8
1979-02-28 12:04:11.340 ,4,0,2.,0.8,0.,0.8,0.,0.8,5.,0.8
1979-02-28 12:04:12.140 ,5,0,2.,0.8,0.,0.8,0.,0.8,3.,0.8
1979-02-28 12:04:12.940 ,5,0,2.,0.8,0.,0.8,0.,0.8,2.,0.8
1979-02-28 12:04:13.740 ,5,0,1.,0.8,0.,0.8,0.,0.8,3.,0.8
1979-02-28 12:04:14.540 ,5,0,0.,0.8,0.,0.8,1.,0.8,5.,0.8
1979-02-28 12:04:15.340 ,5,0,0.,0.8,0.,0.8,0.,0.8,5.,0.8
1979-02-28 12:04:16.140 ,5,0,1.,0.8,0.,0.8,1.,0.8,2.,0.8
1979-02-28 12:04:16.940 ,5,0,1.,0.8,1.,0.8,0.,0.8,7.,0.8
1979-02-28 12:04:17.740 ,5,0,1.,0.8,0.,0.8,1.,0.8,4.,0.8
1979-02-28 12:04:18.540 ,5,0,3.,0.8,0.,0.8,0.,0.8,5.,0.8
1979-02-28 12:04:19.340 ,5,0,1.,0.8,0.,0.8,0.,0.8,2.,0.8
1979-02-28 12:04:20.140 ,5,0,1.,0.8,0.,0.8,0.,0.8,4.,0.8
1979-02-28 12:04:20.940 ,5,0,2.,0.8,0.,0.8,0.,0.8,5.,0.8
1979-02-28 12:04:21.740 ,5,0,1.,0.8,0.,0.8,0.,0.8,2.,0.8
1979-02-28 12:04:22.540 ,5,0,1.,0.8,0.,0.8,0.,0.8,3.,0.8
1979-02-28 12:04:23.340 ,5,0,3.,0.8,0.,0.8,0.,0.8,4.,0.8
1979-02-28 12:04:24.140 ,5,0,1.,0.8,0.,0.8,0.,0.8,5.,0.8
1979-02-28 12:04:24.940 ,5,0,1.,0.8,0.,0.8,0.,0.8,2.,0.8
1979-02-28 12:04:25.740 ,5,0,2.,0.8,0.,0.8,0.,0.8,7.,0.8
1979-02-28 12:04:26.540 ,5,0,1.,0.8,0.,0.8,0.,0.8,3.,0.8
1979-02-28 12:04:27.340 ,5,0,0.,0.8,0.,0.8,0.,0.8,3.,0.8
1979-02-28 12:04:28.140 ,5,0,1.,0.8,0.,0.8,0.,0.8,3.,0.8
1979-02-28 12:04:28.940 ,5,0,1.,0.8,0.,0.8,0.,0.8,4.,0.8
1979-02-28 12:04:29.740 ,5,0,2.,0.8,0.,0.8,0.,0.8,7.,0.8
1979-02-28 12:04:30.540 ,5,0,2.,0.8,0.,0.8,1.,0.8,3.,0.8
1979-02-28 12:04:31.340 ,5,0,0.,0.8,0.,0.8,0.,0.8,2.,0.8
1979-02-28 12:04:32.140 ,5,0,1.,0.8,0.,0.8,0.,0.8,6.,0.8
1979-02-28 12:04:32.940 ,5,0,0.,0.8,0.,0.8,0.,0.8,5.,0.8
1979-02-28 12:04:33.740 ,5,0,1.,0.8,0.,0.8,0.,0.8,4.,0.8
1979-02-28 12:04:34.540 ,5,0,2.,0.8,0.,0.8,0.,0.8,5.,0.8
1979-02-28 12:04:35.340 ,5,0,2.,0.8,0.,0.8,0.,0.8,4.,0.8
1979-02-28 12:04:36.140 ,6,0,0.,0.8,0.,0.8,0.,0.8,2.,0.8
1979-02-28 12:04:36.940 ,6,0,4.,0.8,0.,0.8,0.,0.8,5.,0.8
1979-02-28 12:04:37.740 ,6,0,0.,0.8,0.,0.8,0.,0.8,1.,0.8
1979-02-28 12:04:38.540 ,6,0,3.,0.8,0.,0.8,1.,0.8,3.,0.8
1979-02-28 12:04:39.340 ,6,0,2.,0.8,0.,0.8,0.,0.8,5.,0.8
1979-02-28 12:04:40.140 ,6,0,0.,0.8,0.,0.8,0.,0.8,7.,0.8
1979-02-28 12:04:40.940 ,6,0,2.,0.8,0.,0.8,0.,0.8,5.,0.8
1979-02-28 12:04:41.740 ,6,0,0.,0.8,0.,0.8,0.,0.8,0.,0.8
1979-02-28 12:04:42.540 ,6,0,1.,0.8,0.,0.8,0.,0.8,2.,0.8
1979-02-28 12:04:43.340 ,6,0,2.,0.8,0.,0.8,0.,0.8,4.,0.8
1979-02-28 12:04:44.140 ,6,0,2.,0.8,0.,0.8,0.,0.8,5.,0.8
1979-02-28 12:04:44.940 ,6,0,1.,0.8,0.,0.8,0.,0.8,3.,0.8
1979-02-28 12:04:45.740 ,6,0,0.,0.8,0.,0.8,0.,0.8,0.,0.8
1979-02-28 12:04:46.540 ,6,0,2.,0.8,0.,0.8,0.,0.8,5.,0.8
1979-02-28 12:04:47.340 ,6,0,0.,0.8,0.,0.8,0.,0.8,5.,0.8
1979-02-28 12:04:48.140 ,6,0,1.,0.8,0.,0.8,0.,0.8,4.,0.8
1979-02-28 12:04:48.940 ,6,0,0.,0.8,0.,0.8,0.,0.8,2.,0.8
1979-02-28 12:04:49.740 ,6,0,3.,0.8,0.,0.8,0.,0.8,4.,0.8
1979-02-28 12:04:50.540 ,6,0,1.,0.8,0.,0.8,0.,0.8,4.,0.8
1979-02-28 12:04:51.340 ,6,0,1.,0.8,0.,0.8,0.,0.8,3.,0.8
1979-02-28 12:04:52.140 ,6,0,1.,0.8,0.,0.8,0.,0.8,3.,0.8
1979-02-28 12:04:52.940 ,6,0,0.,0.8,0.,0.8,0.,0.8,1.,0.8
1979-02-28 12:04:53.740 ,6,0,2.,0.8,0.,0.8,0.,0.8,2.,0.8
1979-02-28 12:04:54.540 ,6,0,0.,0.8,0.,0.8,1.,0.8,3.,0.8
1979-02-28 12:04:55.340 ,6,0,1.,0.8,0.,0.8,0.,0.8,4.,0.8
1979-02-28 12:04:56.140 ,6,0,1.,0.8,0.,0.8,1.,0.8,6.,0.8
1979-02-28 12:04:56.940 ,6,0,1.,0.8,0.,0.8,0.,0.8,3.,0.8
1979-02-28 12:04:57.740 ,6,0,3.,0.8,0.,0.8,0.,0.8,3.,0.8
1979-02-28 12:04:58.540 ,6,0,1.,0.8,0.,0.8,0.,0.8,2.,0.8
1979-02-28 12:04:59.340 ,6,0,3.,0.8,0.,0.8,1.,0.8,5.,0.8
1979-02-28 12:05:00.140 ,7,0,2.,0.8,0.,0.8,0.,0.8,6.,0.8
1979-02-28 12:05:00.940 ,7,0,2.,0.8,0.,0.8,2.,0.8,4.,0.8
1979-02-28 12:05:01.740 ,7,0,2.,0.8,1.,0.8,0.,0.8,4.,0.8
1979-02-28 12:05:02.540 ,7,0,1.,0.8,0.,0.8,0.,0.8,5.,0.8
1979-02-28 12:05:03.340 ,7,0,3.,0.8,0.,0.8,0.,0.8,7.,0.8
1979-02-28 12:05:04.140 ,7,0,1.,0.8,0.,0.8,0.,0.8,5.,0.8
1979-02-28 12:05:04.940 ,7,0,3.,0.8,0.,0.8,0.,0.8,5.,0.8
1979-02-28 12:05:05.740 ,7,0,1.,0.8,0.,0.8,0.,0.8,5.,0.8
1979-02-28 12:05:06.540 ,7,0,1.,0.8,0.,0.8,0.,0.8,3.,0.8
1979-02-28 12:05:07.340 ,7,0,3.,0.8,0.,0.8,0.,0.8,5.,0.8
1979-02-28 12:05:08.140 ,7,0,0.,0.8,0.,0.8,0.,0.8,1.,0.8
1979-02-28 12:05:08.940 ,7,0,2.,0.8,0.,0.8,0.,0.8,6.,0.8
1979-02-28 12:05:09.740 ,7,0,2.,0.8,0.,0.8,0.,0.8,3.,0.8
1979-02-28 12:05:10.540 ,7,0,1.,0.8,0.,0.8,0.,0.8,2.,0.8
1979-02-28 12:05:11.340 ,7,0,3.,0.8,0.,0.8,0.,0.8,4.,0.8
1979-02-28 12:05:12.140 ,7,0,2.,0.8,0.,0.8,0.,0.8,4.,0.8
1979-02-28 12:05:12.940 ,7,0,0.,0.8,0.,0.8,0.,0.8,9.,0.8
1979-02-28 12:05:13.740 ,7,0,2.,0.8,0.,0.8,0.,0.8,2.,0.8
1979-02-28 12:05:14.540 ,7,0,1.,0.8,0.,0.8,0.,0.8,3.,0.8
1979-02-28 12:05:15.340 ,7,0,2.,0.8,0.,0.8,0.,0.8,5.,0.8
1979-02-28 12:05:16.140 ,7,0,1.,0.8,0.,0.8,0.,0.8,3.,0.8
1979-02-28 12:05:16.940 ,7,0,1.,0.8,0.,0.8,0.,0.8,3.,0.8
1979-02-28 12:05:17.740 ,7,0,3.,0.8,0.,0.8,0.,0.8,0.,0.8
1979-02-28 12:05:18.540 ,7,0,1.,0.8,0.,0.8,0.,0.8,6.,0.8
1979-02-28 12:05:19.340 ,7,0,1.,0.8,0.,0.8,0.,0.8,2.,0.8
1979-02-28 12:05:20.140 ,7,0,3.,0.8,0.,0.8,0.,0.8,5.,0.8
1979-02-28 12:05:20.940 ,7,0,3.,0.8,0.,0.8,0.,0.8,6.,0.8
1979-02-28 12:05:21.740 ,7,0,2.,0.8,0.,0.8,0.,0.8,6.,0.8
1979-02-28 12:05:22.540 ,7,0,1.,0.8,0.,0.8,0.,0.8,1.,0.8
1979-02-28 12:05:23.340 ,7,0,2.,0.8,0.,0.8,0.,0.8,5.,0.8
1979-02-28 12:05:24.140 ,7,0,2.,0.8,0.,0.8,0.,0.8,5.,0.8
1979-02-28 12:05:24.940 ,7,0,1.,0.8,0.,0.8,0.,0.8,1.,0.8
1979-02-28 12:05:25.740 ,7,0,1.,0.8,0.,0.8,0.,0.8,4.,0.8
1979-02-28 12:05:26.540 ,7,0,2.,0.8,0.,0.8,0.,0.8,5.,0.8
1979-02-28 12:05:27.340 ,7,0,3.,0.8,0.,0.8,0.,0.8,2.,0.8
1979-02-28 12:05:28.140 ,7,0,2.,0.8,0.,0.8,0.,0.8,2.,0.8
1979-02-28 12:05:28.940 ,7,0,1.,0.8,0.,0.8,0.,0.8,3.,0.8
1979-02-28 12:05:29.740 ,7,0,0.,0.8,0.,0.8,0.,0.8,4.,0.8
1979-02-28 12:05:30.540 ,7,0,1.,0.8,0.,0.8,0.,0.8,7.,0.8
1979-02-28 12:05:31.340 ,7,0,1.,0.8,0.,0.8,0.,0.8,2.,0.8
1979-02-28 12:05:32.140 ,7,0,3.,0.8,0.,0.8,0.,0.8,3.,0.8
1979-02-28 12:05:32.940 ,7,0,1.,0.8,0.,0.8,0.,0.8,1.,0.8
1979-02-28 12:05:33.740 ,7,0,4.,0.8,0.,0.8,0.,0.8,7.,0.8
1979-02-28 12:05:34.540 ,7,0,1.,0.8,0.,0.8,0.,0.8,3.,0.8
1979-02-28 12:05:35.340 ,7,0,3.,0.8,0.,0.8,0.,0.8,5.,0.8
1979-02-28 12:05:36.140 ,7,0,2.,0.8,0.,0.8,0.,0.8,6.,0.8
1979-02-28 12:05:36.940 ,7,0,2.,0.8,0.,0.8,0.,0.8,3.,0.8
1979-02-28 12:05:37.740 ,7,0,2.,0.8,0.,0.8,0.,0.8,3.,0.8
1979-02-28 12:05:38.540 ,7,0,2.,0.8,0.,0.8,0.,0.8,0.,0.8
1979-02-28 12:05:39.340 ,7,0,1.,0.8,0.,0.8,0.,0.8,5.,0.8
1979-02-28 12:05:40.140 ,7,0,1.,0.8,0.,0.8,0.,0.8,4.,0.8
1979-02-28 12:05:40.940 ,7,0,3.,0.8,0.,0.8,0.,0.8,3.,0.8